Cecil M. Harden Lake Weather Center

Moon Phase Calendar



Cecil M. Harden Lake Water Level
Online Cameras

 


      

Current Conditions in Rockville
5/5/2021 8:57:39 PM

56°F
Feels Like 53
Clear
Humidity
47%
Pressure
30.12"
Wind
5.8 mph (N)
Dew Point
36°F
UV Index
0/10 (Low)
Visibility
6 mi

Hourly Forecast

Date & Time Wed, May 5
8:00 PM
Wed, May 5
9:00 PM
Wed, May 5
10:00 PM
Wed, May 5
11:00 PM
Thu, May 6
12:00 AM
Thu, May 6
1:00 AM
Thu, May 6
2:00 AM
Thu, May 6
3:00 AM
Thu, May 6
4:00 AM
Thu, May 6
5:00 AM
Thu, May 6
6:00 AM
Thu, May 6
7:00 AM
Thu, May 6
8:00 AM
Thu, May 6
9:00 AM
Thu, May 6
10:00 AM
Thu, May 6
11:00 AM
Thu, May 6
12:00 PM
Thu, May 6
1:00 PM
Thu, May 6
2:00 PM
Thu, May 6
3:00 PM
Thu, May 6
4:00 PM
Thu, May 6
5:00 PM
Thu, May 6
6:00 PM
Thu, May 6
7:00 PM
Thu, May 6
8:00 PM
Thu, May 6
9:00 PM
Thu, May 6
10:00 PM
Thu, May 6
11:00 PM
Fri, May 7
12:00 AM
Fri, May 7
1:00 AM
Fri, May 7
2:00 AM
Fri, May 7
3:00 AM
Fri, May 7
4:00 AM
Fri, May 7
5:00 AM
Fri, May 7
6:00 AM
Fri, May 7
7:00 AM
Fri, May 7
8:00 AM
Fri, May 7
9:00 AM
Fri, May 7
10:00 AM
Fri, May 7
11:00 AM
Fri, May 7
12:00 PM
Fri, May 7
1:00 PM
Fri, May 7
2:00 PM
Fri, May 7
3:00 PM
Fri, May 7
4:00 PM
Fri, May 7
5:00 PM
Fri, May 7
6:00 PM
Fri, May 7
7:00 PM
Condition
Clear

Clear

Clear

Clear

Clear

Clouds

Clouds

Clouds

Clouds

Clouds

Clouds

Clouds

Clouds

Clouds

Clouds

Clouds

Rain

Clouds

Rain

Rain

Rain

Rain

Clouds

Rain

Clouds

Clear

Clear

Clear

Clear

Clear

Clear

Clear

Clear

Clear

Clear

Clear

Clear

Clouds

Clouds

Clouds

Rain

Rain

Clouds

Clouds

Clouds

Clouds

Clouds

Clouds
Temperature 55°F56°F54°F51°F49°F46°F44°F43°F44°F44°F42°F42°F44°F46°F49°F53°F53°F56°F59°F55°F56°F53°F52°F52°F49°F46°F43°F42°F41°F40°F40°F40°F40°F39°F39°F39°F42°F47°F51°F55°F56°F54°F59°F59°F59°F59°F59°F56°F
Feels Like 53°F53°F51°F49°F45°F42°F40°F39°F41°F41°F38°F38°F41°F42°F45°F51°F51°F54°F58°F54°F56°F52°F51°F50°F43°F41°F39°F38°F37°F36°F35°F35°F35°F34°F34°F34°F38°F43°F50°F53°F54°F53°F57°F57°F57°F57°F57°F54°F
Cloudiness 3%1%3%3%5%20%38%100%100%100%92%94%95%100%100%95%96%97%97%100%100%100%99%94%91%9%5%5%6%6%6%0%0%0%0%0%0%43%60%53%48%58%51%85%80%77%73%77%
Visibility 6 mi6 mi6 mi6 mi6 mi6 mi6 mi6 mi6 mi6 mi6 mi6 mi6 mi6 mi6 mi6 mi6 mi6 mi6 mi3 mi6 mi6 mi6 mi6 mi6 mi6 mi6 mi6 mi6 mi6 mi6 mi6 mi6 mi6 mi6 mi6 mi6 mi6 mi6 mi6 mi6 mi6 mi6 mi6 mi6 mi6 mi6 mi6 mi
Precipitation 0%0%0%0%0%0%0%0%0%0%0%0%0%9%5%19%44%46%54%94%100%100%80%100%80%0%0%0%0%0%0%0%0%0%0%0%0%0%0%0%20%25%29%0%0%0%0%0%
Humidity 51%47%50%54%57%60%60%60%58%57%61%63%66%69%66%60%70%67%65%80%83%86%82%80%81%81%86%89%87%87%90%90%90%90%90%90%87%77%69%62%61%66%49%45%43%46%52%55%
Dew Point 38°F36°F36°F35°F34°F33°F31°F30°F30°F30°F30°F30°F34°F36°F38°F39°F43°F45°F47°F49°F51°F49°F47°F46°F43°F41°F39°F38°F37°F36°F37°F37°F37°F36°F36°F36°F38°F41°F42°F42°F43°F43°F40°F38°F37°F39°F41°F41°F
Pressure 30.12"30.12"30.12"30.15"30.15"30.18"30.18"30.15"30.15"30.15"30.15"30.15"30.15"30.15"30.12"30.09"30.06"30.03"30"29.97"29.94"29.97"29.97"30"30.03"30.06"30.06"30.09"30.09"30.09"30.06"30.06"30.03"30.03"30.03"30.03"30.06"30.06"30.06"30.03"30"30"30"29.97"29.97"29.97"29.97"29.97"
Wind Speed 5.8 mph6.9 mph7.6 mph7.3 mph7.2 mph6.8 mph6.5 mph6.7 mph5.4 mph6.1 mph6.4 mph7 mph6.7 mph8.8 mph10.5 mph13.2 mph11.1 mph13.8 mph16 mph13.5 mph14.6 mph17.2 mph16.4 mph17.5 mph15.2 mph11.4 mph8.1 mph5.9 mph5.5 mph6.3 mph6.4 mph6.9 mph7 mph7.1 mph7.1 mph5.6 mph6.3 mph10.2 mph12.4 mph14.2 mph16.9 mph15.1 mph17.2 mph18.5 mph17.4 mph16.3 mph13.7 mph12.8 mph
Wind
Direction
40°
NE
55°
NE
66°
ENE
74°
ENE
78°
ENE
98°
E
102°
ESE
107°
ESE
129°
SE
157°
SSE
162°
SSE
177°
S
178°
S
190°
S
189°
S
192°
SSW
189°
S
199°
SSW
216°
SW
235°
SW
280°
W
325°
NW
331°
NNW
339°
NNW
344°
NNW
347°
NNW
348°
NNW
349°
N
329°
NNW
302°
WNW
283°
WNW
281°
W
288°
WNW
297°
WNW
291°
WNW
270°
W
269°
W
275°
W
289°
WNW
304°
NW
299°
WNW
305°
NW
307°
NW
313°
NW
308°
NW
313°
NW
318°
NW
327°
NNW

Daily Forecast

Date High Low Precip. Humidity
Today
May 5

Clear
59 °F
42 °F
72%
50%
Thursday
May 6

Rain
59 °F
42 °F
100%
67%
Friday
May 7

Rain
59 °F
39 °F
29%
66%
Saturday
May 8

Rain
58 °F
37 °F
100%
48%
Sunday
May 9

Rain
64 °F
45 °F
100%
97%
Monday
May 10

Rain
54 °F
43 °F
87%
54%
Tuesday
May 11

Clouds
58 °F
37 °F
0%
53%
Wednesday
May 12

Rain
58 °F
41 °F
100%
55%
Thursday
May 13

Rain
51 °F
45 °F
100%
87%
Friday
May 14

Clear
65 °F
42 °F
0%
55%
Saturday
May 15

Clouds
70 °F
47 °F
0%
60%
Sunday
May 16

Rain
71 °F
58 °F
100%
93%
Monday
May 17

Clouds
67 °F
51 °F
63%
50%
Tuesday
May 18

Clear
64 °F
44 °F
0%
48%
Wednesday
May 19

Rain
64 °F
47 °F
100%
75%
Thursday
May 20

Rain
75 °F
62 °F
100%
87%

Temperature 8-14 Day Outlook



Precipitation 8-14 Day Outlook




Quick Links
Cecil M. Harden Lake News
Cecil M. Harden Lake Photos
Cecil M. Harden Lake Videos




About Us
Contact Us
Site Map
Search Site
Advertise With Us
   
CecilMHarden.LakesOnline.com
THE CECIL M. HARDEN LAKE WEBSITE

Copyright 2021, Lakes Online
Privacy    |    Legal